Location: Ford County Road and Bridge Department
(37.7686°N, 99.9762°W)
Time: 21:58:49
(UTC+00:00)

USA 32 - Pass Details

Date: 18 January 2020
Orbit: 777 x 783 km, 85.0° (Epoch: 29 January)

Event Time Altitude Azimuth Distance (km) Brightness Sun altitude
Rises 00:59:13 0° 174° (S) 3,245 7.4 -14.2°
Reaches altitude 10° 01:01:34 10° 171° (S) 2,321 6.6 -14.7°
Maximum altitude 01:06:43 64° 91° (E) 857 4.0 -15.7°
Drops below altitude 10° 01:11:53 10° 11° (N) 2,334 6.3 -16.7°
Sets 01:14:15 0° 8° (N) 3,266 7.0 -17.1°
